Time,TemperatureF,DewpointF,PressureIn,WindDirection,WindDirectionDegrees,WindSpeedMPH,WindSpeedGustMPH,Humidity,HourlyPrecipIn,Conditions,Clouds,dailyrainin,SoftwareType,DateUTC
2013-04-24 00:02:00,33.0,-99.9,-100.00,WNW,289,6.0,8.0,-999,-99.99,,,-99.99,,2013-04-24 07:02:00,
2013-04-24 01:02:00,33.0,-99.9,-100.00,NW,317,2.0,3.0,-999,-99.99,,,-99.99,,2013-04-24 08:02:00,
2013-04-24 02:02:00,34.0,-99.9,-100.00,NW,313,3.0,5.0,-999,-99.99,,,-99.99,,2013-04-24 09:02:00,
2013-04-24 03:03:00,35.0,-99.9,-100.00,SSW,199,2.0,3.0,-999,-99.99,,,-99.99,,2013-04-24 10:03:00,
2013-04-24 03:13:00,35.0,-99.9,-100.00,SSW,199,2.0,3.0,-999,-99.99,,,-99.99,,2013-04-24 10:13:00,
2013-04-24 04:03:00,31.0,-99.9,-100.00,SE,139,5.0,8.0,-999,-99.99,,,-99.99,,2013-04-24 11:03:00,
2013-04-24 05:02:00,31.0,-99.9,-100.00,SSE,154,9.0,12.0,-999,-99.99,,,-99.99,,2013-04-24 12:02:00,
2013-04-24 06:02:00,30.0,-99.9,-100.00,SSE,166,6.0,7.0,-999,-99.99,,,-99.99,,2013-04-24 13:02:00,
2013-04-24 06:12:00,30.0,-99.9,-100.00,SSE,166,6.0,7.0,-999,-99.99,,,-99.99,,2013-04-24 13:12:00,
2013-04-24 08:02:00,35.0,-99.9,-100.00,SE,140,5.0,8.0,-999,-99.99,,,-99.99,,2013-04-24 15:02:00,
2013-04-24 08:11:00,35.0,-99.9,-100.00,SE,140,5.0,8.0,-999,-99.99,,,-99.99,,2013-04-24 15:11:00,
2013-04-24 09:03:00,48.0,-99.9,-100.00,SE,137,3.0,8.0,-999,-99.99,,,-99.99,,2013-04-24 16:03:00,
2013-04-24 09:12:00,48.0,-99.9,-100.00,SE,137,3.0,8.0,-999,-99.99,,,-99.99,,2013-04-24 16:12:00,
2013-04-24 10:02:00,54.0,-99.9,-100.00,SE,134,7.0,10.0,-999,-99.99,,,-99.99,,2013-04-24 17:02:00,
2013-04-24 10:12:00,54.0,-99.9,-100.00,SE,134,7.0,10.0,-999,-99.99,,,-99.99,,2013-04-24 17:12:00,
2013-04-24 11:02:00,59.0,-99.9,-100.00,SE,141,5.0,9.0,-999,-99.99,,,-99.99,,2013-04-24 18:02:00,
2013-04-24 11:12:00,59.0,-99.9,-100.00,SE,141,5.0,9.0,-999,-99.99,,,-99.99,,2013-04-24 18:12:00,
2013-04-24 12:02:00,63.0,-99.9,-100.00,ESE,103,3.0,12.0,-999,-99.99,,,-99.99,,2013-04-24 19:02:00,
2013-04-24 12:12:00,63.0,-99.9,-100.00,ESE,103,3.0,12.0,-999,-99.99,,,-99.99,,2013-04-24 19:12:00,
2013-04-24 14:02:00,68.0,-99.9,-100.00,South,176,7.0,14.0,-999,-99.99,,,-99.99,,2013-04-24 21:02:00,
2013-04-24 14:12:00,68.0,-99.9,-100.00,South,176,7.0,14.0,-999,-99.99,,,-99.99,,2013-04-24 21:12:00,
2013-04-24 15:03:00,71.0,-99.9,-100.00,West,267,6.0,13.0,-999,-99.99,,,-99.99,,2013-04-24 22:03:00,
2013-04-24 15:12:00,71.0,-99.9,-100.00,West,267,6.0,13.0,-999,-99.99,,,-99.99,,2013-04-24 22:12:00,
2013-04-24 16:03:00,72.0,-99.9,-100.00,South,183,5.0,17.0,-999,-99.99,,,-99.99,,2013-04-24 23:03:00,
2013-04-24 16:12:00,72.0,-99.9,-100.00,South,183,5.0,17.0,-999,-99.99,,,-99.99,,2013-04-24 23:12:00,
2013-04-24 17:02:00,73.0,-99.9,-100.00,SSW,207,6.0,20.0,-999,-99.99,,,-99.99,,2013-04-25 00:02:00,
2013-04-24 17:12:00,73.0,-99.9,-100.00,SSW,207,6.0,20.0,-999,-99.99,,,-99.99,,2013-04-25 00:12:00,
2013-04-24 18:02:00,73.0,-99.9,-100.00,SW,233,3.0,10.0,-999,-99.99,,,-99.99,,2013-04-25 01:02:00,
2013-04-24 18:12:00,73.0,-99.9,-100.00,SW,233,3.0,10.0,-999,-99.99,,,-99.99,,2013-04-25 01:12:00,
2013-04-24 19:02:00,73.0,-99.9,-100.00,SE,144,8.0,15.0,-999,-99.99,,,-99.99,,2013-04-25 02:02:00,
2013-04-24 19:11:00,73.0,-99.9,-100.00,SE,144,8.0,15.0,-999,-99.99,,,-99.99,,2013-04-25 02:11:00,
2013-04-24 20:02:00,69.0,-99.9,-100.00,South,191,6.0,10.0,-999,-99.99,,,-99.99,,2013-04-25 03:02:00,
2013-04-24 20:11:00,69.0,-99.9,-100.00,South,191,6.0,10.0,-999,-99.99,,,-99.99,,2013-04-25 03:11:00,
2013-04-24 21:03:00,59.0,-99.9,-100.00,SSE,150,3.0,6.0,-999,-99.99,,,-99.99,,2013-04-25 04:03:00,
2013-04-24 21:13:00,59.0,-99.9,-100.00,SSE,150,3.0,6.0,-999,-99.99,,,-99.99,,2013-04-25 04:13:00,
2013-04-24 22:03:00,58.0,-99.9,-100.00,WSW,247,3.0,9.0,-999,-99.99,,,-99.99,,2013-04-25 05:03:00,
2013-04-24 22:12:00,58.0,-99.9,-100.00,WSW,247,3.0,9.0,-999,-99.99,,,-99.99,,2013-04-25 05:12:00,